Location: Chiroubles
(46.1812°N, 4.6660°E)
Time: 02:28:28
(UTC+00:00)

Cosmos 1464 Rocket - Pass Details

Date: 15 August 2020
Orbit: 952 x 1002 km, 82.9° (Epoch: 19 September)

Event Time Altitude Azimuth Distance (km) Brightness Sun altitude
Exits shadow 22:46:14 52° 84° (E) 1,195 4.3 -28.7°
Drops below altitude 10° 22:51:57 10° 17° (NNE) 2,706 7.0 -28.9°
Sets 22:54:30 0° 13° (NNE) 3,651 7.9 -29.1°
